{"data":{"norad_id":53225,"epoch":"2026-05-25T03:04:50.107008Z","epoch_age_seconds":63684,"freshness":"FRESH","line1":"1 53225U 22084AN  26145.12835772  .00003625  00000+0  25484-3 0  9997","line2":"2 53225  97.4489 206.1491 0002317 125.3076 234.8368 15.05702072210882","mean_motion":15.05702072,"eccentricity":0.0002317,"inclination_deg":97.4489,"raan_deg":206.1491,"arg_perigee_deg":125.3076,"mean_anomaly_deg":234.8368,"bstar":0.00025484,"rev_number":21088,"period_min":95.636449386516,"perigee_km":547.7463338749,"apogee_km":550.95653201472,"semimajor_km":6927.4884329448,"source":"CELESTRAK","updated_at":"2026-05-25T13:38:17.356961Z"}}